Flag for Mongolia Weather past 2 weeks in Ulaanbaatar, Mongolia

Now
9 °F

Passing clouds.


Feels Like: -13 °F
Forecast: -16 / 15 °F
Wind: 26 mph from North

Location: Ulan-Bator

Current Time: Mar 2, 2015 at 1:47:17 PM

Latest Report: Mar 2, 2015 at 1:00 PM


Visibility: N/A

Pressure: 30.18 "Hg

Humidity: 36%

Dew point: -13 °F

Location of UlaanbaatarLocation

Historic Weather in Ulaanbaatar — Graph

°F

Ulaanbaatar temperature yesterday

Maximum temperature yesterday: 25 °F (at 4:30 PM)
Minimum temperature yesterday: -9 °F (at 5:00 AM)
Average temperature yesterday: 7 °F

Past Weeks' High & Low Weather Summary

 TemperatureHumidityPressure
High36 °F (Feb 19, 2:00 PM)85% (Feb 15, 7:00 PM)30.24 "Hg (Feb 15, 7:00 PM)
Low-24 °F (Feb 23, 7:30 AM)21% (Feb 26, 4:30 PM)29.65 "Hg (Feb 20, 7:30 AM)
Average5 °F59%29.98 "Hg
* Reported Feb 15 12:00 Noon — Mar 2 12:30 PM, Ulaanbaatar, Weather by CustomWeather, © 2015

Note: Actual official high and low records may vary slightly from our data, if they occured in-between our weather recording intervals... More about our weather records

Advertising

Ulaanbaatar weather history for previous 24 hours

 ConditionsComfort  
Time TempWeatherWind HumidityBarometerVisibility
12:30 PM
Mon, Mar 2
9 °FPassing clouds.22 mph39%30.18 "HgN/A
12:00 PM9 °FPassing clouds.24 mph39%30.15 "HgN/A
11:30 AM9 °FPassing clouds.22 mph47%30.15 "HgN/A
11:00 AM9 °FPassing clouds.20 mph39%30.15 "HgN/A
10:30 AM9 °FPassing clouds.20 mph43%30.15 "HgN/A
10:00 AM9 °FPassing clouds.22 mph47%30.15 "HgN/A
9:30 AM7 °FPassing clouds.13 mph51%30.12 "HgN/A
9:00 AM7 °FPassing clouds.15 mph51%30.12 "HgN/A
8:30 AM5 °FPassing clouds.15 mph55%30.12 "HgN/A
8:00 AM1 °FPassing clouds.1 mph71%30.09 "HgN/A
7:30 AM1 °FPassing clouds.6 mph71%30.09 "HgN/A
7:00 AM3 °FPassing clouds.3 mph66%30.09 "HgN/A
6:30 AM5 °FPassing clouds.6 mph60%30.07 "HgN/A
6:00 AM9 °FPassing clouds.8 mph51%30.04 "HgN/A
5:00 AM9 °FPassing clouds.13 mph56%30.01 "HgN/A
4:00 AM7 °FPassing clouds.3 mph61%30.01 "HgN/A
3:00 AM10 °FPassing clouds.8 mph52%30.01 "HgN/A
2:00 AM10 °FPassing clouds.8 mph52%29.98 "HgN/A
1:00 AM9 °FPassing clouds.6 mph66%29.95 "HgN/A
12:30 AM10 °FPassing clouds.6 mph67%29.95 "HgN/A
12:00 AM3 °FPassing clouds.No wind78%29.95 "HgN/A
11:30 PM
Sun, Mar 1
3 °FPassing clouds.No wind78%29.95 "HgN/A
11:00 PM7 °FPassing clouds.1 mph72%29.92 "HgN/A
10:30 PM9 °FPassing clouds.1 mph66%29.92 "HgN/A
10:00 PM10 °FPassing clouds.No wind67%29.92 "HgN/A
9:30 PM5 °FPassing clouds.3 mph72%29.89 "HgN/A
9:00 PM3 °FPassing clouds.No wind78%29.89 "HgN/A
8:30 PM5 °FPassing clouds.No wind66%29.89 "HgN/A
8:00 PM10 °FPassing clouds.3 mph61%29.86 "HgN/A
7:30 PM12 °FScattered clouds.No wind62%29.86 "HgN/A
7:00 PM12 °FSunny.6 mph62%29.83 "Hg10 mi
6:30 PM19 °FSunny.6 mph49%29.83 "Hg10 mi
6:00 PM21 °FScattered clouds.10 mph42%29.80 "HgN/A
5:30 PM23 °FScattered clouds.10 mph42%29.80 "HgN/A
5:00 PM25 °FScattered clouds.10 mph42%29.80 "HgN/A
4:30 PM25 °FPartly sunny.6 mph42%29.80 "HgN/A
4:00 PM23 °FScattered clouds.1 mph42%29.80 "HgN/A
3:30 PM23 °FScattered clouds.1 mph42%29.80 "HgN/A
3:00 PM21 °FPartly sunny.1 mph45%29.80 "HgN/A
2:30 PM19 °FPartly sunny.1 mph45%29.80 "Hg5 mi
2:00 PM19 °FPartly sunny.1 mph45%29.80 "Hg5 mi
1:30 PM19 °FPartly sunny.1 mph45%29.83 "Hg5 mi
1:00 PM18 °FPartly sunny.1 mph45%29.83 "Hg4 mi
Weather by CustomWeather, © 2015

See weather overviewHow to use our weather pages